Flag Weather past 2 weeks in Lansing, Michigan, U.S.A.

Now
28 °F

Overcast.


Feels Like: 22 °F
Forecast: 26 / 31 °F
Wind: 6 mph from East

Location: Capital City Airport

Current Time: Nov 26, 2014 at 9:31:52 AM

Latest Report: Nov 26, 2014 at 8:53 AM


Visibility: 10 mi

Pressure: 30.21 "Hg

Humidity: 69%

Dew point: 19 °F

Location of LansingLocation

Historic Weather in Lansing — Graph

°F

Lansing temperature yesterday

Maximum temperature yesterday: 31 °F (at 12:53 AM)
Minimum temperature yesterday: 29 °F (at 4:53 AM)
Average temperature yesterday: 30 °F

Past Weeks' High & Low Weather Summary

 TemperatureHumidityPressure
High55 °F (Nov 11, 11:53 AM)93% (Nov 22, 2:53 PM)30.50 "Hg (Nov 22, 2:53 PM)
Low7 °F (Nov 21, 5:53 AM)23% (Nov 18, 10:02 AM)29.02 "Hg (Nov 24, 2:53 AM)
Average29 °F76%29.99 "Hg
* Reported Nov 11 7:53 AM — Nov 26 7:53 AM, Lansing, Weather by CustomWeather, © 2014

Note: Actual official high and low records may vary slightly from our data, if they occured in-between our weather recording intervals... More about our weather records

Advertising

Lansing weather history for previous 24 hours

 ConditionsComfort  
Time TempWeatherWind HumidityBarometerVisibility
7:53 AM
Nov 26
28 °FOvercast.7 mph72%30.20 "Hg10 mi
6:53 AM28 °FOvercast.3 mph69%30.20 "Hg10 mi
5:53 AM28 °FOvercast.6 mph69%30.21 "Hg10 mi
4:53 AM28 °FOvercast.3 mph69%30.22 "Hg10 mi
3:53 AM28 °FOvercast.No wind69%30.22 "Hg10 mi
2:53 AM28 °FOvercast.3 mph72%30.22 "Hg10 mi
1:53 AM28 °FOvercast.5 mph72%30.22 "Hg10 mi
12:53 AM29 °FOvercast.7 mph69%30.22 "Hg10 mi
11:53 PM
Nov 25
29 °FOvercast.6 mph69%30.23 "Hg10 mi
10:53 PM29 °FOvercast.7 mph69%30.22 "Hg10 mi
9:53 PM29 °FOvercast.7 mph72%30.21 "Hg10 mi
8:53 PM29 °FOvercast.8 mph72%30.19 "Hg10 mi
7:53 PM29 °FOvercast.12 mph69%30.19 "Hg10 mi
6:53 PM30 °FOvercast.12 mph69%30.17 "Hg10 mi
5:53 PM30 °FLight snow. Overcast.10 mph69%30.15 "Hg9 mi
4:53 PM30 °FLight snow. Overcast.14 mph69%30.12 "Hg9 mi
3:53 PM30 °FLight snow. Overcast.14 mph69%30.10 "Hg9 mi
2:53 PM30 °FLight snow. Cloudy.17 mph72%30.06 "Hg9 mi
1:53 PM30 °FLight snow. Mostly cloudy.16 mph79%30.04 "Hg8 mi
12:53 PM31 °FLight snow. Mostly cloudy.18 mph73%30.02 "Hg9 mi
12:02 PM30 °FLight snow. Mostly cloudy.18 mph75%29.98 "Hg9 mi
11:53 AM30 °FSleet. Overcast.21 mph79%30.01 "Hg9 mi
10:53 AM30 °FSleet. Overcast.16 mph79%29.98 "Hg9 mi
9:53 AM29 °FSleet. Mostly cloudy.17 mph79%29.96 "Hg8 mi
Weather by CustomWeather, © 2014

See weather overviewHow to use our weather pages